STARLINK-35130, 65740

Orbit data source: Space-Track

STARLINK-35130, 65740 is a payload satellite owned by SpaceX/Seattle (US) in LEO that was launched on Thu, 25 Sep 2025 UTC via an FALCON 9 launch vehicle from the Air Force Eastern Test Range (AFETR). Payload-class satellites include a variety of spacecraft equipped with specific instruments for various scientific and technological missions. These include communications satellites like Starlink; space stations such as the ISS; scientific satellites like the Hubble; Earth observation satellites from companies like Planet Labs, Umbra, and HawkEye 360; GPS; miniature CubeSats for education and research; and military/defense satellites.

Loading next visibility...
Identifier
65740, 2025-216G
Orbit
LEO
Country
Flag of USUS
Related business
Manufacturer
SpaceX/Seattle
Mission
Operational Commercial Communications
Bus & Motor
STARLINK V2MO, Unknown motor
Mass
575 kg wet, ~530 kg dry
Launch date (UTC)
2025-09-25 (9 months ago)
Launch vehicle
FALCON 9
Launch site
Air Force Eastern Test Range (AFETR)
Object type
Payload
Rocket body
Debris
Shape & HBR
Box + 2 Pan, 17.7 m
Radar Cross Section
36.964 m², Large (>1 m²)

Expand to show TLE details & history
Last TLE update: 10 hours ago

TLE from 10 hours ago
0 STARLINK-35130
1 65740U 25216G   26171.41896791  .00010302  00000-0  35937-3 0  9996
2 65740  53.1567 215.6013 0001281  79.6260 280.4885 15.30209309 42329
Epoch: 2026-06-20T10:03Z
TLE epoch observation values (Epoch: 2026-06-20T10:03:18.827Z)
Latitude
-0.00003°
Longitude
156.13897°
Altitude
475.927 km
Speed
7.629 km/s
True Right ascension
14h 22m 24s
True Declination
0° 00' 00"
Sunlit
Object was in full shadow at epoch
Visualization orbit readout
Latitude
Unknown
Longitude
Unknown
Altitude
Unknown
Speed
Unknown
Apparent Right ascension
Unknown
Apparent Declination
Unknown
Sunlit
N/A
Visualization observer readout
Local Sidereal Time
07:11:43
Azimuth
Unknown
Elevation
Unknown
Doppler factor
Unknown
Orbital elements
Apogee altitude
476.322 km
Perigee altitude
474.566 km
Semi-major axis
6,853.581 km
Eccentricity
0.00013
Inclination
53.1567°
RAAN
215.6013°
Arg. of periapsis
79.626°
True anomaly
280.47407°
Mean anomaly
280.4885°
Eccentric anomaly
280.48128°
Mean motion
3.82531 °/min
Orbital period
94.11 mins
BSTAR
0.00035937
Loading maneuver chart data...
Computing Atmospheric mass density...
Loading historical data...
Loading historical data...
Loading historical data...
Loading historical data...
Loading historical data...
Loading historical data...
Loading historical data...

Documentation

Showing up to 5 results
|